STARLINK-11616, 63137

Orbit data source: Space-Track

STARLINK-11616, 63137 is a payload satellite owned by SpaceX/Seattle (US) in LEO that was launched on Mon, 03 Mar 2025 UTC via an FALCON 9 launch vehicle from the Air Force Eastern Test Range (AFETR). Payload-class satellites include a variety of spacecraft equipped with specific instruments for various scientific and technological missions. These include communications satellites like Starlink; space stations such as the ISS; scientific satellites like the Hubble; Earth observation satellites from companies like Planet Labs, Umbra, and HawkEye 360; GPS; miniature CubeSats for education and research; and military/defense satellites.

Loading next visibility...
Identifier
63137, 2025-043F
Orbit
LEO
Country
Flag of USUS
Related business
Manufacturer
SpaceX/Seattle
Mission
Operational Commercial Communications
Bus & Motor
STARLINK V2MD, Unknown motor
Mass
960 kg wet, ~910 kg dry
Launch date (UTC)
2025-03-03 (1 year ago)
Launch vehicle
FALCON 9
Launch site
Air Force Eastern Test Range (AFETR)
Object type
Payload
Rocket body
Debris
Shape & HBR
Box + 2 Pan, 18.1 m
Radar Cross Section
36.964 m², Large (>1 m²)

Expand to show TLE details & history
Last TLE update: 22 hours ago

TLE from 22 hours ago
0 STARLINK-11616
1 63137U 25043F   26170.91784986  .00088071  00000-0  68211-3 0  9997
2 63137  42.9994 354.1910 0001856 264.8369  95.2287 15.70856359 75554
Epoch: 2026-06-19T22:01Z
TLE epoch observation values (Epoch: 2026-06-19T22:01:42.227Z)
Latitude
-0.00003°
Longitude
115.62508°
Altitude
356.334 km
Speed
7.697 km/s
True Right ascension
23h 36m 45s
True Declination
0° 00' 00"
Sunlit
Object was in daylight at epoch
Visualization orbit readout
Latitude
Unknown
Longitude
Unknown
Altitude
Unknown
Speed
Unknown
Apparent Right ascension
Unknown
Apparent Declination
Unknown
Sunlit
N/A
Visualization observer readout
Local Sidereal Time
07:19:18
Azimuth
Unknown
Elevation
Unknown
Doppler factor
Unknown
Orbital elements
Apogee altitude
359.68 km
Perigee altitude
357.18 km
Semi-major axis
6,736.567 km
Eccentricity
0.00019
Inclination
42.9994°
RAAN
354.191°
Arg. of periapsis
264.8369°
True anomaly
95.24988°
Mean anomaly
95.2287°
Eccentric anomaly
95.23929°
Mean motion
3.92541 °/min
Orbital period
91.71 mins
BSTAR
0.00068211
Loading maneuver chart data...
Computing Atmospheric mass density...
Loading historical data...
Loading historical data...
Loading historical data...
Loading historical data...
Loading historical data...
Loading historical data...
Loading historical data...

Documentation

Showing up to 5 results
|